sat.trackr.live / text

‹ back to catalog

STARLINK-3548

NORAD 51864 · 2022-022N

PAYLOAD ACTIVE UNKNOWN

§ Identity

Operator
Country
US
Launch date
2022-03-03
Launch site
AFETR
Launch vehicle
Mass (kg)
RCS (m²)

Purposes: comms

External: N2YO · Heavens-Above · Gunter

§ Orbital elements

Epoch: 2026-05-24T22:51:27.151776Z

Period
95.44 min
Inclination
53.2172°
Eccentricity
0.0001352
Mean motion
15.08838315 rev/d
Perigee alt
538.8 km
Apogee alt
540.7 km
Semi-major
6,917.9 km
B*
-1.2444e-5
RAAN
26.6862°
Arg perigee
93.4693°
Mean anomaly
266.6454°
Rev number
23,467

§ Raw data

STARLINK-35481 51864U 22022N   26144.95239759 -.00000486  00000+0 -12444-4 0  99962 51864  53.2172  26.6862 0001352  93.4693 266.6454 15.08838315234678

JSON: /api/v1/satellites/51864 · /tle

For live sub-satellite position, see the globe view (requires WebGL).

§ Visibility from observer

Set your observer location to see the next 7 days of passes ≥ 10°. The values pass through the URL so the page stays shareable.

No JS? Fill the form by hand. The geolocation button needs JavaScript.